Change the Weather History Date:

Sunday, March 11, 2012

  Actual Average (KDRA) Record (KDRA)
Temperature  
Mean Temperature 54 °F -  
Max Temperature 71 °F 64 °F 80 °F (1997)
Min Temperature 37 °F 39 °F 30 °F (2009)
Degree Days  
Heating Degree Days 11    
Growing Degree Days 4 (Base 50)    
Moisture  
Dew Point 13 °F    
Average Humidity 20    
Maximum Humidity 33    
Minimum Humidity 8    
Precipitation  
Precipitation 0.00 in - - ()
Sea Level Pressure  
Sea Level Pressure 29.79 in    
Wind  
Wind Speed 3 mph (SSE)    
Max Wind Speed 16 mph    
Max Gust Speed 28 mph    
Visibility 10 miles    
Events      
Averages and records for this station are not official NWS values.
T = Trace of Precipitation, MM = Missing Value Source: NWS Daily Summary

Daily Weather History Graph

Daily Weather History Graph

Search for Another Location

Airport or City:

Trip Planner

Search our weather history database for the weather conditions in past years. The results will help you decide how hot, cold, wet, or windy it might be!

Date:

Astronomy

Mar. 11, 2012 Rise Set
Actual Time 6:58 AM PDT 6:47 PM PDT
Civil Twilight 6:32 AM PDT 7:12 PM PDT
Nautical Twilight 6:02 AM PDT 7:42 PM PDT
Astronomical Twilight 5:32 AM PDT 8:12 PM PDT
Moon 11:07 PM PDT (3/11) 8:45 AM PDT (3/11)
Length of Visible Light 12h 39m
Length of Day
11h 48m
Waning Gibbous, 84% of the Moon is Illuminated
Mar 11
Waning Gibbous
Mar 14
Last Quarter
Mar 22
New
Mar 30
First Quarter
Apr 6
Full

Hourly Weather History & Observations

Time (PDT) Temp. Dew Point Humidity Pressure Visibility Wind Dir Wind Speed Gust Speed Precip Events Conditions
12:55 AM 41.9 °F 10.9 °F 28% 29.82 in 10.0 mi Calm Calm - N/A   Clear
1:55 AM 39.7 °F 9.9 °F 29% 29.81 in 10.0 mi Calm Calm - N/A   Clear
3:55 AM 39.7 °F 10.0 °F 30% 29.79 in 10.0 mi Calm Calm - N/A   Clear
4:55 AM 40.5 °F 9.9 °F 29% 29.81 in 10.0 mi Calm Calm - N/A   Clear
5:55 AM 37.6 °F 9.0 °F 31% 29.81 in 10.0 mi Calm Calm - N/A   Clear
6:55 AM 37.9 °F 11.1 °F 33% 29.83 in 10.0 mi Calm Calm - N/A   Clear
7:55 AM 37.4 °F 9.3 °F 31% 29.87 in 10.0 mi Calm Calm - N/A   Clear
8:55 AM 44.2 °F 11.5 °F 26% 29.87 in 10.0 mi Calm Calm - N/A   Clear
9:55 AM 52.0 °F 13.5 °F 22% 29.86 in 10.0 mi Calm Calm - N/A   Clear
10:55 AM 57.9 °F 16.3 °F 20% 29.86 in 10.0 mi Calm Calm - N/A   Partly Cloudy
11:55 AM 61.2 °F 17.1 °F 18% 29.84 in 10.0 mi WNW 6.9 mph - N/A   Scattered Clouds
12:55 PM 63.9 °F 17.1 °F 16% 29.83 in 10.0 mi Calm Calm - N/A   Partly Cloudy
1:55 PM 67.5 °F 15.3 °F 13% 29.79 in 10.0 mi ESE 9.2 mph - N/A   Clear
2:55 PM 69.8 °F 11.3 °F 10% 29.75 in 10.0 mi ESE 13.8 mph - N/A   Clear
3:55 PM 70.9 °F 11.5 °F 10% 29.73 in 10.0 mi ESE 16.1 mph 27.6 mph N/A   Clear
4:55 PM 71.2 °F 7.2 °F 8% 29.72 in 10.0 mi SSW 16.1 mph - N/A   Clear
5:55 PM 70.0 °F 9.0 °F 9% 29.72 in 10.0 mi WSW 9.2 mph - N/A   Clear
6:55 PM 67.8 °F 11.8 °F 11% 29.73 in 10.0 mi South 4.6 mph - N/A   Clear
7:55 PM 66.6 °F 13.8 °F 13% 29.73 in 10.0 mi South 10.4 mph - N/A   Clear
8:55 PM 66.6 °F 16.3 °F 15% 29.73 in 10.0 mi South 13.8 mph - N/A   Clear
9:55 PM 63.3 °F 16.5 °F 16% 29.73 in 10.0 mi ENE 8.1 mph - N/A   Partly Cloudy
10:55 PM 62.6 °F 16.2 °F 17% 29.74 in 10.0 mi Variable 3.5 mph - N/A   Mostly Cloudy
11:55 PM 61.2 °F 17.6 °F 18% 29.74 in 10.0 mi Calm Calm - N/A   Clear
12:55 AM 59.9 °F 17.8 °F 19% 29.73 in 10.0 mi Variable 3.5 mph - N/A   Clear